Regional Weather Roundup
Issued by NWS

Home | Current Version | Previous Version | Graphics & Text | Print | Product List | Glossary On
Versions: 1 2 3 4 5 6 7 8 9 10 11 12 13 14 15 16 17 18 19 20 21 22 23 24 25 26 27 28 29 30 31 32 33 34 35 36 37 38 39 40 41 42 43 44 45 46 47 48 49 50
000
ASUS43 KBIS 201302
RWRND

NORTH DAKOTA REGIONAL WEATHER ROUNDUP
NATIONAL WEATHER SERVICE BISMARCK ND
700 AM CST MON NOV 20 2017

NOTE: "FAIR" INDICATES FEW OR NO CLOUDS BELOW 12,000 FEET WITH NO
SIGNIFICANT WEATHER AND/OR OBSTRUCTIONS TO VISIBILITY.


NDZ001>003-009>011-017-201400-
NORTHWEST NORTH DAKOTA

CITY           SKY/WX    TMP DP  RH WIND       PRES   REMARKS
WILLISTON      CLOUDY    35  21  56 SW9       29.38F
MINOT          CLOUDY    41  22  46 SW15      29.35F
$$

NDZ018>021-031>035-040>046-201400-
SOUTHWEST NORTH DAKOTA

CITY           SKY/WX    TMP DP  RH WIND       PRES   REMARKS
BISMARCK       CLOUDY    32  23  69 CALM      29.46F
DICKINSON      CLOUDY    38  19  46 SW15      29.43F
GARRISON         N/A     33  25  72 W6        29.39F
HETTINGER ARPT CLOUDY    37  17  44 NW10      29.50F
$$

NDZ004>008-012>016-024-026-027-054-201400-
NORTHEAST NORTH DAKOTA

CITY           SKY/WX    TMP DP  RH WIND       PRES   REMARKS
GRAND FORKS    CLOUDY    30  26  85 S16       29.41F WCI  19
GRND FRKS AFB  CLOUDY    32  25  77 SW8       29.40F
DEVILS LAKE    CLOUDY    33  24  69 SW9       29.38F
$$

NDZ022-023-025-028>030-036>039-047>053-201400-
SOUTHEAST NORTH DAKOTA

CITY           SKY/WX    TMP DP  RH WIND       PRES   REMARKS
FARGO          CLOUDY    30  23  75 S12       29.48F
JAMESTOWN      CLOUDY    31  23  72 S10       29.42F
$$





USA.gov is the U.S. government's official web portal to all federal, state and local government web resources and services.